Etusivu
METAR-TAF:

METAR-TAF

Lentoasemat :

Vilhelminan, Ruotsi

Leveyspiiri: 64-34-44N, Pituuspiiri: 016-50-00E, korkeus merenpinnasta: 347 m

Tämänhetkinen sää

Tämä raportti tehtiin 27 minuuttia sitten, kello 18.20 UTC
Tuuli 3 kn etelästä/kaakosta
Lämpötila 16°C
Kosteus 55%
Ilmanpaine 1021 hPa
Näkyvyys 10 km tai enemmän

METAR: ESNV 221820Z AUTO 15003KT 9999 SCT084/// 16/07 Q1021

Aika: 20:47 (18:47 UTC)


TAF: puuttuu

Säähavainnot ja -ennusteet yli 4000 lentoasemalta (METAR- ja TAF-raportit).

Käytössä olevat sääasemat on merkitty karttaan keltaisilla ja punaisilla pisteillä.

Aseta hiiri pisteen päälle nähdäksesi sääaseman nimen.

Klikkaa sitten nähdäksesi säähavainnot ja -ennusteet.

Kartan vaihtaminen: klikkaa mustalla rastilla varustettuja vihreitä pisteitä, niin voit zoomata sisään; viivalla varustettua vihreää pistettä, niin voit zoomata ulos tai vihreitä nuolia, niin pääset viereisille kartoille.


METAR-TAF: